When you browse on this site, cookies collect data to enhance your experience and personalize the content and advertising you see.
Visit our Privacy Policy to learn more. By continuing to use the site, you agree to this use of cookies and data.
  • Em Portugal
  • Lista de países
  • Para 7 dias
  • Temperatura da água
  • Mapas de satélite
  • Mapa do tempo
  • Widgets de tempo
  • user-avatar
    Iniciar Sessão

    Previsão horária em Okragle

    Hoje, 23 Maio, Quinta-feira

    Tempo Temperatura Precipitação Vento Pressão Humidade
    00:00 +14°C° 0 mm 1 m/s 739 mmHg 86%
    01:00 +14°C° 0 mm 1 m/s 739 mmHg 87%
    02:00 +14°C° 0 mm 1 m/s 739 mmHg 87%
    03:00 +14°C° 0 mm 1 m/s 739 mmHg 88%
    04:00 +14°C° 0 mm 1 m/s 739 mmHg 88%
    05:00 +14°C° 0 mm 1 m/s 739 mmHg 89%
    06:00 +15°C° 0.1 mm 1 m/s 739 mmHg 86%
    07:00 +17°C° 0.1 mm 2 m/s 740 mmHg 83%
    08:00 +18°C° 0 mm 3 m/s 740 mmHg 81%
    09:00 +19°C° 0.6 mm 3 m/s 740 mmHg 77%
    10:00 +20°C° 0.6 mm 3 m/s 740 mmHg 74%
    11:00 +21°C° 0.6 mm 3 m/s 740 mmHg 70%
    12:00 +21°C° 0.5 mm 4 m/s 740 mmHg 71%
    13:00 +21°C° 0.5 mm 4 m/s 740 mmHg 71%
    14:00 +22°C° 0.5 mm 4 m/s 740 mmHg 72%
    15:00 +21°C° 0.3 mm 4 m/s 740 mmHg 73%
    16:00 +21°C° 0.3 mm 5 m/s 740 mmHg 74%
    17:00 +21°C° 0.3 mm 5 m/s 740 mmHg 75%
    18:00 +19°C° 0 mm 5 m/s 740 mmHg 80%
    19:00 +16°C° 0 mm 5 m/s 740 mmHg 85%
    20:00 +15°C° 0 mm 5 m/s 740 mmHg 89%
    21:00 +13°C° 0 mm 5 m/s 741 mmHg 90%
    22:00 +12°C° 0 mm 5 m/s 741 mmHg 91%
    23:00 +10°C° 0 mm 5 m/s 741 mmHg 93%

    Amanhã, 24 Maio, Sexta-feira

    Tempo Temperatura Precipitação Vento Pressão Humidade
    00:00 +11°C° 0 mm 4 m/s 741 mmHg 93%
    01:00 +10°C° 0 mm 4 m/s 741 mmHg 93%
    02:00 +10°C° 0 mm 4 m/s 742 mmHg 93%
    03:00 +8°C° 0 mm 4 m/s 741 mmHg 93%
    04:00 +8°C° 0 mm 4 m/s 741 mmHg 92%
    05:00 +9°C° 0 mm 3 m/s 741 mmHg 92%
    06:00 +10°C° 0 mm 3 m/s 741 mmHg 88%
    07:00 +11°C° 0 mm 3 m/s 742 mmHg 85%
    08:00 +13°C° 0 mm 3 m/s 742 mmHg 82%
    09:00 +14°C° 0 mm 3 m/s 742 mmHg 78%
    10:00 +17°C° 0 mm 4 m/s 742 mmHg 75%
    11:00 +19°C° 0 mm 4 m/s 742 mmHg 71%
    12:00 +19°C° 0 mm 4 m/s 742 mmHg 70%
    13:00 +19°C° 0 mm 4 m/s 741 mmHg 70%
    14:00 +20°C° 0 mm 4 m/s 741 mmHg 69%
    15:00 +20°C° 0 mm 4 m/s 741 mmHg 68%
    16:00 +19°C° 0 mm 4 m/s 741 mmHg 68%
    17:00 +19°C° 0 mm 5 m/s 741 mmHg 67%
    18:00 +17°C° 0 mm 4 m/s 740 mmHg 71%
    19:00 +15°C° 0 mm 4 m/s 740 mmHg 76%
    20:00 +13°C° 0 mm 3 m/s 740 mmHg 80%
    21:00 +12°C° 0 mm 3 m/s 740 mmHg 82%
    22:00 +11°C° 0 mm 3 m/s 740 mmHg 84%
    23:00 +10°C° 0 mm 2 m/s 741 mmHg 86%

    Depois de amanhã, 25 Maio, Sábado

    Tempo Temperatura Precipitação Vento Pressão Humidade
    00:00 +9°C° 0 mm 2 m/s 740 mmHg 84%
    01:00 +9°C° 0 mm 2 m/s 740 mmHg 83%
    02:00 +10°C° 0 mm 1 m/s 740 mmHg 81%
    03:00 +9°C° 0 mm 1 m/s 740 mmHg 80%
    04:00 +9°C° 0 mm 1 m/s 740 mmHg 79%
    05:00 +9°C° 0 mm 1 m/s 739 mmHg 78%
    06:00 +10°C° 0 mm 2 m/s 739 mmHg 75%
    07:00 +13°C° 0 mm 2 m/s 739 mmHg 71%
    08:00 +14°C° 0 mm 3 m/s 739 mmHg 68%
    09:00 +15°C° 0 mm 4 m/s 739 mmHg 67%
    10:00 +18°C° 0 mm 4 m/s 739 mmHg 65%
    11:00 +19°C° 0 mm 5 m/s 739 mmHg 64%
    12:00 +19°C° 0.2 mm 5 m/s 739 mmHg 66%
    13:00 +19°C° 0.2 mm 6 m/s 739 mmHg 68%
    14:00 +19°C° 0.2 mm 6 m/s 739 mmHg 70%
    15:00 +17°C° 0 mm 6 m/s 739 mmHg 70%
    16:00 +16°C° 0 mm 6 m/s 739 mmHg 69%
    17:00 +16°C° 0 mm 6 m/s 738 mmHg 69%
    18:00 +14°C° 0 mm 5 m/s 739 mmHg 74%
    19:00 +12°C° 0 mm 4 m/s 739 mmHg 80%
    20:00 +11°C° 0 mm 3 m/s 739 mmHg 85%
    21:00 +10°C° 0 mm 3 m/s 739 mmHg 89%
    22:00 +8°C° 0 mm 3 m/s 739 mmHg 92%
    23:00 +7°C° 0 mm 3 m/s 739 mmHg 95%

    26 Maio, Domingo

    Tempo Temperatura Precipitação Vento Pressão Humidade
    00:00 +7°C° 0 mm 3 m/s 739 mmHg 95%
    01:00 +7°C° 0 mm 3 m/s 739 mmHg 96%
    02:00 +7°C° 0 mm 3 m/s 739 mmHg 96%
    03:00 +6°C° 0 mm 4 m/s 739 mmHg 96%
    04:00 +7°C° 0 mm 4 m/s 739 mmHg 96%
    05:00 +7°C° 0 mm 4 m/s 739 mmHg 96%
    06:00 +8°C° 0 mm 4 m/s 739 mmHg 90%
    07:00 +10°C° 0 mm 5 m/s 738 mmHg 84%
    08:00 +12°C° 0 mm 5 m/s 738 mmHg 78%
    09:00 +12°C° 0.1 mm 5 m/s 738 mmHg 80%
    10:00 +12°C° 0.1 mm 5 m/s 738 mmHg 83%
    11:00 +12°C° 0.1 mm 5 m/s 738 mmHg 85%
    12:00 +12°C° 0.2 mm 5 m/s 738 mmHg 84%
    13:00 +11°C° 0.2 mm 6 m/s 738 mmHg 82%
    14:00 +11°C° 0.2 mm 6 m/s 738 mmHg 81%
    15:00 +11°C° 0.2 mm 6 m/s 738 mmHg 81%
    16:00 +11°C° 0.2 mm 6 m/s 738 mmHg 82%
    17:00 +10°C° 0.2 mm 6 m/s 738 mmHg 83%
    18:00 +10°C° 0.1 mm 5 m/s 738 mmHg 84%
    19:00 +11°C° 0.1 mm 4 m/s 738 mmHg 86%
    20:00 +11°C° 0.1 mm 4 m/s 738 mmHg 87%
    21:00 +10°C° 0.1 mm 4 m/s 738 mmHg 88%
    22:00 +10°C° 0.1 mm 4 m/s 738 mmHg 90%
    23:00 +10°C° 0.1 mm 4 m/s 738 mmHg 91%

    27 Maio, Segunda-feira

    Tempo Temperatura Precipitação Vento Pressão Humidade
    00:00 +8°C° 0 mm 4 m/s 738 mmHg 92%
    01:00 +8°C° 0 mm 3 m/s 738 mmHg 94%
    02:00 +8°C° 0 mm 3 m/s 738 mmHg 96%
    03:00 +7°C° 0 mm 3 m/s 738 mmHg 96%
    04:00 +7°C° 0 mm 3 m/s 738 mmHg 96%
    05:00 +7°C° 0 mm 3 m/s 739 mmHg 97%
    06:00 +8°C° 0 mm 3 m/s 739 mmHg 91%
    07:00 +10°C° 0 mm 4 m/s 739 mmHg 86%
    08:00 +12°C° 0 mm 4 m/s 739 mmHg 81%
    09:00 +13°C° 0 mm 4 m/s 740 mmHg 76%
    10:00 +15°C° 0 mm 4 m/s 740 mmHg 72%
    11:00 +17°C° 0 mm 4 m/s 740 mmHg 67%
    12:00 +17°C° 0 mm 4 m/s 740 mmHg 70%
    13:00 +17°C° 0 mm 4 m/s 740 mmHg 72%
    14:00 +17°C° 0 mm 3 m/s 739 mmHg 75%
    15:00 +18°C° 0 mm 3 m/s 739 mmHg 74%
    16:00 +19°C° 0 mm 3 m/s 739 mmHg 72%
    17:00 +20°C° 0 mm 3 m/s 739 mmHg 71%
    18:00 +19°C° 0.1 mm 3 m/s 739 mmHg 76%
    19:00 +18°C° 0.1 mm 3 m/s 739 mmHg 81%
    20:00 +17°C° 0.1 mm 3 m/s 738 mmHg 86%
    21:00 +16°C° 0 mm 3 m/s 738 mmHg 89%
    22:00 +14°C° 0 mm 3 m/s 738 mmHg 91%
    23:00 +14°C° 0 mm 3 m/s 738 mmHg 93%

    28 Maio, Terça-feira

    Tempo Temperatura Precipitação Vento Pressão Humidade
    00:00 +13°C° 0 mm 3 m/s 738 mmHg 93%
    01:00 +13°C° 0 mm 3 m/s 738 mmHg 93%
    02:00 +13°C° 0 mm 3 m/s 737 mmHg 93%
    03:00 +13°C° 0.1 mm 4 m/s 737 mmHg 93%
    04:00 +14°C° 0.1 mm 4 m/s 736 mmHg 93%
    05:00 +14°C° 0.1 mm 5 m/s 736 mmHg 93%
    06:00 +14°C° 1.2 mm 4 m/s 735 mmHg 94%
    07:00 +14°C° 1.2 mm 4 m/s 735 mmHg 96%
    08:00 +14°C° 1.2 mm 4 m/s 734 mmHg 97%
    09:00 +15°C° 0.5 mm 4 m/s 734 mmHg 94%
    10:00 +18°C° 0.5 mm 4 m/s 734 mmHg 92%
    11:00 +19°C° 0.5 mm 5 m/s 733 mmHg 90%
    12:00 +20°C° 0.3 mm 6 m/s 733 mmHg 84%
    13:00 +21°C° 0.3 mm 6 m/s 733 mmHg 78%
    14:00 +23°C° 0.3 mm 7 m/s 733 mmHg 72%
    15:00 +22°C° 0.5 mm 7 m/s 733 mmHg 74%
    16:00 +22°C° 0.5 mm 6 m/s 733 mmHg 76%
    17:00 +21°C° 0.5 mm 6 m/s 733 mmHg 78%
    18:00 +20°C° 0.3 mm 5 m/s 733 mmHg 83%
    19:00 +17°C° 0.3 mm 5 m/s 734 mmHg 88%
    20:00 +17°C° 0.3 mm 4 m/s 734 mmHg 93%
    21:00 +15°C° 0 mm 4 m/s 735 mmHg 94%
    22:00 +14°C° 0 mm 4 m/s 735 mmHg 94%
    23:00 +13°C° 0 mm 4 m/s 736 mmHg 95%
    Mostrar mais